アトラス彗星

C/2022 W2 ( ATLAS )

English version
Home page
Updated on May 13, 2024

---------------------------------------------------------------------

・ プロフィール

発見日 2022年11月24日
発見光度 19.1等
発見者 Asteroid Terrestrial-Impact Last Alert System (ATLAS) search program

・ 写真集

・ 軌道要素

Epoch 2024 Mar. 31.0 TT = JDT 2460400.5
T 2023 Mar. 8.75999 TT                                  Rudenko
q   3.1231246            (2000.0)            P               Q
z  +0.0029131      Peri.  123.27794     -0.18575116     -0.80040785
 +/-0.0000001      Node   320.45077     +0.28657959     +0.51069662
e   0.9909020      Incl.   63.52205     +0.93987693     -0.31390483
>From 252 observations 2022 Nov. 5-2024 Mar. 2, mean residual 0".6.

・ 光度変化

        m1 = 5.5 + 5 logΔ + 20.0 log r(t + 50)

---------------------------------------------------------------------

軌道要素はM.P.E.C. 2024-E157に掲載されたものです。
光度グラフはComet for Windowsで作成したものです。

---------------------------------------------------------------------

Copyright(C) Seiichi Yoshida (comet@aerith.net). All rights reserved.